Theta_e
303 297 295 298 299 299 297 296 295 298 299 297 297 298 301 304 304 304 305 306 307 308 311 313 313 313 316 321 322 324 324 324 324 324 323 324 326 323 323 325 324 328 328 326
299 295 300 301 301 299 297 295 294 298 300 296 297 297 301 303 303 304 305 306 307 308 309 311 313 313 312 314 318 319 319 319 320 320 320 320 321 321 320 316 316 316 320 323
296 298 301 299 297 295 296 294 295 295 298 298 296 295 298 302 304 305 305 307 307 307 308 310 312 312 312 311 314 315 316 316 317 318 318 318 317 317 313 311 311 308 310 315
297 301 297 297 295 296 292 298 296 295 293 289 296 288 296 299 300 303 304 305 306 308 309 310 310 312 311 312 313 313 315 315 316 318 316 315 311 309 310 313 311 307 305 307
294 295 295 294 295 298 294 298 296 295 293 293 293 289 293 299 297 299 303 306 308 310 310 309 310 310 311 312 312 313 313 313 315 316 316 314 310 313 314 315 309 304 300 304
296 298 298 297 296 298 298 296 295 295 293 286 291 291 292 296 298 300 303 305 306 306 307 307 308 308 308 311 311 312 311 311 313 315 315 313 312 313 314 313 306 300 298 296
294 294 297 298 294 296 296 293 286 285 285 285 293 291 293 298 301 302 302 305 306 305 306 307 305 304 305 306 307 309 309 309 312 313 313 313 313 314 314 313 309 301 297 294
289 287 294 297 296 293 293 293 288 284 284 287 288 286 292 301 302 303 304 305 306 305 305 306 307 306 304 304 305 306 307 307 310 311 311 311 312 313 313 311 310 307 302 300
289 289 296 296 298 298 292 289 296 289 287 285 288 293 298 300 299 301 302 304 304 306 306 306 307 304 304 304 305 306 306 307 308 310 310 310 311 312 312 310 310 307 307 305
295 289 293 293 296 297 294 297 288 289 283 281 286 289 291 297 298 302 301 302 304 305 306 305 304 303 304 304 305 306 306 306 307 309 309 308 309 310 310 309 306 304 302 298
296 293 289 292 291 291 291 290 291 291 289 285 283 288 298 299 300 300 302 303 303 304 306 305 303 303 303 304 304 304 305 305 306 308 307 307 307 308 308 307 305 302 298 292
296 293 289 290 296 297 294 292 292 287 285 288 287 288 300 301 300 301 302 302 303 302 305 305 303 302 302 303 303 304 305 305 306 306 305 305 305 305 304 304 302 298 293 290
295 288 284 288 292 293 290 293 293 293 291 288 285 288 298 299 300 301 301 303 303 302 302 302 302 302 302 303 303 303 304 305 306 305 303 303 303 302 301 298 296 292 290 288
294 287 287 286 287 291 289 291 293 292 287 287 288 291 296 299 300 301 302 303 304 304 303 303 304 304 303 303 303 303 303 304 304 303 302 301 300 300 298 295 292 289 287 285
292 285 287 288 289 289 287 290 291 289 291 287 290 292 296 299 300 302 304 304 304 304 304 304 303 304 304 302 302 301 302 302 302 301 299 299 299 299 297 293 289 288 285 285
294 286 288 284 289 289 286 289 289 290 293 292 293 293 300 301 303 302 303 303 302 303 304 305 304 302 301 302 301 300 300 299 300 299 298 298 296 293 292 290 288 286 284 283
288 285 285 282 288 287 283 287 290 291 294 293 289 295 299 299 300 302 302 303 303 303 304 305 305 306 302 301 299 298 298 297 296 295 294 293 292 290 290 289 287 285 284 283
288 286 287 282 284 275 287 296 296 294 295 298 297 298 299 300 302 303 304 303 302 303 303 304 305 304 304 302 300 299 295 294 292 292 291 291 289 288 288 286 285 285 283 282
290 287 283 280 280 284 288 292 292 292 292 298 297 299 300 301 301 301 304 305 305 305 303 300 300 299 298 297 297 293 291 291 290 289 289 289 288 287 287 285 284 284 283 282
288 288 284 282 277 275 286 292 295 297 285 290 290 291 290 291 292 298 299 299 300 298 297 296 295 293 292 291 289 288 288 288 288 288 288 289 287 286 285 285 284 284 284 283
282 283 280 280 279 283 290 290 294 282 285 287 290 290 289 288 291 293 297 297 295 293 292 291 291 288 287 286 287 287 286 286 287 286 286 286 286 285 285 285 285 283 282 281
281 280 281 282 279 277 290 290 286 286 289 290 291 291 289 291 292 291 291 293 292 291 289 287 287 285 285 286 286 285 284 284 285 285 284 283 284 284 284 283 283 282 281 279
278 282 281 284 283 288 290 289 292 291 289 288 290 291 290 289 289 289 288 289 289 287 285 284 285 284 284 284 286 284 283 284 282 281 281 282 283 283 283 283 281 281 281 280
286 289 283 283 286 288 290 292 292 292 291 290 291 291 290 287 287 286 286 286 286 285 284 283 283 283 283 283 283 283 283 283 281 281 281 281 281 282 282 283 283 282 281 280
285 286 284 284 286 288 289 290 291 293 292 291 291 290 288 287 286 288 285 284 284 284 283 283 283 282 281 282 282 283 283 282 283 282 282 283 282 282 282 282 282 282 282 282
285 283 280 280 286 286 286 289 290 289 289 290 290 289 289 287 287 286 284 284 283 284 283 282 281 280 278 278 277 278 281 283 282 281 282 282 282 282 282 281 281 283 284 284
Wind_Speed
7 10 11 15 16 14 5 7 9 8 7 4 13 19 19 17 19 20 19 19 20 20 17 15 15 17 16 17 18 19 18 17 13 10 10 9 10 6 7 7 7 7 10 12
6 15 14 3 5 7 9 13 15 14 1 4 15 22 19 18 22 21 20 22 22 20 17 15 16 15 18 19 19 17 18 17 15 10 9 8 9 9 8 5 5 5 6 11
17 4 11 7 7 11 14 16 14 15 4 13 14 17 18 16 16 16 19 22 22 20 17 16 16 17 15 17 18 19 19 18 16 14 9 8 6 5 6 7 5 5 4 7
13 12 4 11 16 12 16 14 14 13 8 8 1 11 17 20 19 15 16 19 19 17 14 13 13 14 16 16 15 16 17 17 16 17 12 14 10 10 9 9 6 7 5 5
4 9 13 14 11 10 3 3 6 6 9 13 14 10 9 13 13 14 18 15 15 11 9 10 11 11 12 12 13 14 15 16 16 15 14 11 12 8 7 8 10 8 5 6
4 1 5 7 4 8 10 7 4 2 4 11 13 17 9 14 15 9 10 10 2 3 3 3 2 3 7 6 9 10 13 14 14 14 15 15 14 11 9 10 7 5 5 4
11 10 5 4 6 4 10 7 4 6 7 13 4 9 13 3 12 12 13 12 3 3 4 2 3 4 5 7 8 9 13 13 13 14 15 15 14 13 13 10 8 9 7 5
16 12 17 15 16 11 16 14 8 7 8 12 5 12 6 5 5 11 13 14 9 6 7 8 5 4 6 8 10 11 11 13 13 14 14 13 14 10 10 11 9 9 9 9
12 12 3 2 10 15 9 12 10 12 2 5 10 19 20 13 12 15 13 14 13 8 8 7 5 5 7 8 9 10 10 11 13 14 12 13 12 13 10 12 10 7 9 8
9 16 5 4 2 9 9 3 7 7 6 11 13 17 15 8 12 10 9 11 11 9 5 4 5 5 5 6 7 8 10 11 11 12 11 11 12 12 11 10 11 10 8 10
11 10 4 6 13 15 8 10 7 6 8 6 12 12 5 7 6 5 8 4 5 7 5 5 4 4 5 6 6 8 9 9 10 9 10 10 10 11 10 10 9 9 8 9
11 5 13 17 3 7 12 19 22 10 8 8 13 21 4 6 4 4 6 4 4 3 4 5 5 6 6 5 5 6 7 8 9 9 10 11 11 10 10 10 9 7 7 7
5 3 3 4 6 3 8 15 14 20 3 12 12 17 0 6 1 1 3 3 4 2 2 3 4 4 3 4 5 7 8 9 8 9 10 11 11 11 11 9 7 7 8 8
8 1 5 8 3 10 7 15 18 16 12 25 16 31 19 13 13 6 5 6 3 2 5 5 4 4 3 6 9 11 10 9 8 9 10 11 10 10 9 8 8 8 8 8
6 5 4 10 9 4 6 13 16 21 25 19 27 23 31 16 17 16 13 13 12 10 8 9 9 8 8 9 10 9 8 8 9 10 10 10 9 9 9 8 8 8 8 8
9 5 7 8 12 13 13 17 19 22 27 25 30 28 22 19 16 16 16 15 17 17 13 11 10 10 9 9 8 7 9 8 8 10 10 8 7 6 6 6 8 9 9 8
5 3 3 18 3 8 11 19 20 22 23 22 22 28 15 17 16 13 16 18 19 18 18 15 13 9 9 9 8 8 8 7 9 9 7 6 7 8 8 7 8 8 8 8
6 4 3 14 3 15 13 7 11 18 20 20 22 26 19 20 23 19 19 19 19 18 16 14 10 8 3 3 4 6 5 6 7 8 6 6 7 8 8 9 9 8 8 9
15 10 6 8 12 14 17 10 7 9 13 12 14 19 19 21 16 22 17 14 18 17 8 2 3 3 4 4 4 1 2 3 4 5 6 7 8 8 8 9 8 7 7 6
11 13 12 12 15 12 16 8 6 8 16 6 10 13 13 12 7 12 16 8 8 5 5 5 3 2 2 2 2 2 3 4 4 3 4 5 5 7 8 8 8 7 6 6
4 4 14 14 13 9 15 5 1 11 4 3 6 8 10 7 7 17 15 13 7 6 6 6 5 4 2 1 3 4 3 2 3 4 5 4 4 4 5 6 4 6 7 7
6 5 6 7 7 10 3 3 4 3 5 4 8 9 8 9 11 8 12 9 10 10 7 6 5 4 4 4 1 4 5 3 4 5 5 5 5 4 5 7 6 6 7 7
10 11 7 5 2 4 2 6 8 6 8 7 9 11 8 10 7 7 6 7 7 9 7 5 5 4 4 5 2 5 3 5 6 6 6 6 5 5 5 7 7 5 5 4
6 4 4 1 6 10 8 8 8 10 10 11 9 9 9 13 9 8 6 4 3 1 5 3 3 5 6 7 6 4 5 5 7 7 7 6 6 6 4 4 5 5 5 4
8 5 11 12 15 9 14 14 14 7 8 11 11 9 12 11 11 7 3 4 4 2 2 1 3 4 4 6 5 5 3 4 7 7 6 6 5 5 5 3 3 3 2 4
14 18 13 13 16 11 13 16 7 8 13 13 9 11 9 10 15 6 5 3 2 3 3 3 3 3 3 4 4 6 5 3 6 6 5 5 5 5 4 3 4 4 3 6
Wind_Direction
203 220 214 222 225 253 285 283 265 265 133 263 263 273 271 273 270 267 266 262 260 253 249 223 220 210 211 211 207 207 204 203 198 198 199 203 206 192 217 211 189 187 180 180
185 228 232 273 288 202 236 258 260 271 266 236 279 281 278 270 263 258 262 263 262 264 252 228 213 207 204 208 206 205 205 200 202 197 200 210 210 213 209 200 187 174 178 175
228 231 234 184 205 220 236 243 256 261 263 236 280 273 266 251 246 262 261 260 263 263 263 251 211 207 210 211 207 206 202 200 198 200 195 198 204 187 204 210 194 182 165 171
245 236 170 210 234 218 251 249 254 269 282 275 210 287 291 290 272 242 250 257 262 263 255 244 254 208 207 214 213 210 204 200 199 194 195 193 197 205 210 206 190 177 156 184
193 190 207 217 219 201 251 35 225 251 258 290 239 261 258 256 259 249 253 254 258 264 272 263 240 232 214 208 208 207 205 202 198 196 198 189 207 215 200 197 183 176 155 190
286 9 219 226 68 206 134 119 108 206 279 262 254 244 255 248 248 258 256 264 303 232 259 257 257 299 223 210 193 202 208 205 202 199 203 201 210 214 202 188 179 166 166 178
205 216 170 173 122 126 198 177 221 233 200 254 17 279 244 254 298 278 268 280 188 214 257 224 174 178 197 190 197 201 207 207 205 201 208 210 218 215 215 198 189 176 176 187
213 220 186 186 216 180 199 203 209 230 238 266 95 240 250 210 269 271 266 269 284 243 247 251 211 178 174 183 191 200 200 205 205 206 209 214 215 218 205 208 199 196 195 193
221 230 217 161 208 204 169 218 253 278 7 285 254 264 273 228 236 247 255 259 269 274 253 246 213 191 177 181 188 195 202 211 209 209 207 217 215 218 207 214 206 208 200 184
245 263 163 134 208 245 231 191 198 216 230 239 257 263 262 273 255 269 237 253 283 276 245 182 166 168 169 176 182 189 201 204 216 211 212 220 216 218 212 210 204 201 194 171
221 234 141 163 205 198 187 214 222 235 225 241 262 260 337 43 36 324 319 323 286 292 233 167 153 152 167 175 185 195 204 208 212 209 219 222 225 220 218 220 207 200 184 175
223 265 241 229 159 260 257 221 211 212 202 235 261 267 134 98 59 356 329 316 338 322 230 147 157 167 179 183 193 208 214 218 217 210 218 218 218 217 222 217 209 187 183 171
36 209 221 269 216 198 241 228 241 231 240 223 218 257 102 113 161 58 288 328 336 342 193 201 190 182 194 207 214 218 217 220 213 212 218 221 219 215 215 209 196 171 167 167
82 290 259 246 64 334 228 237 228 233 221 238 232 257 250 247 280 284 248 225 258 226 225 246 240 243 230 222 221 217 214 213 211 213 219 220 217 212 207 201 185 170 165 165
167 210 215 264 281 322 290 292 293 226 237 237 256 257 266 267 271 285 273 273 275 261 238 251 251 236 227 229 230 230 225 211 205 214 220 224 215 210 201 185 173 166 165 177
178 249 201 256 262 262 266 259 259 267 270 246 253 257 266 275 281 282 281 275 280 285 286 257 241 239 230 246 246 221 221 212 204 217 222 217 209 186 194 175 172 170 168 164
163 194 189 273 255 291 264 252 246 243 242 244 247 258 275 283 283 280 281 275 277 281 278 278 276 258 222 223 222 225 224 202 196 203 203 194 178 180 183 171 168 173 179 165
245 198 226 275 300 261 256 227 241 243 255 249 260 270 281 281 278 284 274 276 274 269 276 276 272 273 239 240 226 230 206 182 180 194 186 178 168 176 176 174 179 175 167 175
221 227 246 244 245 280 276 228 198 211 256 246 249 262 268 271 288 277 277 274 267 271 283 328 359 330 327 309 326 330 168 170 171 192 192 182 177 176 176 181 180 171 160 166
221 228 224 239 252 257 265 262 323 233 261 44 357 346 351 356 283 282 359 338 323 330 328 310 307 269 225 50 355 166 169 163 191 194 193 175 172 171 178 173 170 162 165 157
164 196 221 239 248 253 277 11 286 253 295 345 324 314 319 326 301 310 318 308 332 339 335 332 318 326 8 42 133 132 133 151 108 113 116 118 140 156 152 143 134 143 144 143
223 218 205 216 242 249 351 63 225 350 316 273 283 284 282 281 295 317 334 326 330 327 342 347 334 348 354 11 61 119 106 95 103 111 101 97 114 124 129 129 128 133 139 140
237 226 247 246 273 183 208 146 188 199 244 255 247 286 276 285 278 312 336 337 342 328 328 356 345 346 359 359 31 104 101 101 96 91 87 87 83 95 116 122 122 125 137 141
243 143 228 216 225 242 225 246 255 229 231 266 274 276 278 277 272 256 233 232 261 350 320 358 14 8 2 350 14 69 103 110 105 100 98 102 108 107 103 108 135 139 157 159
248 203 237 247 254 259 256 260 268 233 253 267 268 245 246 258 255 258 251 220 252 211 171 119 98 79 36 358 357 21 70 100 105 105 107 102 104 110 116 92 127 126 120 163
241 246 246 252 265 264 273 289 213 241 264 261 266 277 254 241 258 226 225 219 192 239 163 182 122 94 95 87 320 350 4 80 111 112 117 121 124 122 114 123 105 74 115 202